Weather History for Clinton, BC

Change the Weather History Date:

Monday, October 7, 2013

  Actual Average Record
Temperature  
Mean Temperature 49 °F -  
Max Temperature 56 °F 50 °F 69 °F (2012)
Min Temperature 42 °F 30 °F 21 °F (1997)
Degree Days  
Heating Degree Days 16    
Moisture  
Dew Point 32 °F    
Average Humidity 52    
Maximum Humidity 66    
Minimum Humidity 30    
Precipitation  
Precipitation 0.00 in - - ()
Sea Level Pressure  
Sea Level Pressure 29.70 in    
Wind  
Wind Speed 7 mph ()    
Max Wind Speed 13 mph    
Max Gust Speed 38 mph    
Visibility 9.0 miles    
Events Rain    
Averages and records for this station are not official NWS values.
T = Trace of Precipitation, MM = Missing Value Source: Averaged Metar Reports

Daily Weather History Graph

Daily Weather History Graph

Search for Another Location

Airport:

Trip Planner

Search our weather history database for the weather conditions in past years. The results will help you decide how hot, cold, wet, or windy it might be!

Date:

Astronomy

Oct. 07, 2013 Rise Set
Actual Time 7:16 AM PDT 6:29 PM PDT
Civil Twilight 6:43 AM PDT 7:02 PM PDT
Nautical Twilight 6:05 AM PDT 7:40 PM PDT
Astronomical Twilight 5:26 AM PDT 8:19 PM PDT
Moon 10:34 AM PDT (10/7) 7:55 PM PDT (10/7)
Length of Visible Light 12h 18m
Length of Day
11h 12m
Waxing Crescent, 9% of the Moon is Illuminated
Oct 7
Waxing Crescent
Oct 11
First Quarter
Oct 18
Full
Oct 26
Last Quarter
Nov 3
New

Hourly Weather History & Observations

Time (PDT) Temp. Windchill Dew Point Humidity Pressure Visibility Wind Dir Wind Speed Gust Speed Precip Events Conditions
12:00 AM 51.8 °F - 24.8 °F 35% 29.70 in 9.0 mi South 12.7 mph 23.0 mph N/A   Clear
1:00 AM 51.8 °F - 26.6 °F 38% 29.69 in 9.0 mi South 10.4 mph 21.9 mph N/A   Clear
2:00 AM 50 °F - 29 °F 32% 29.67 in 9 mi South 10.4 mph - -  
2:00 AM 50.0 °F - 28.4 °F 43% 29.67 in 9.0 mi SSE 8.1 mph 19.6 mph N/A   Clear
3:00 AM 50.0 °F - 32.0 °F 50% 29.65 in 9.0 mi South 11.5 mph 38.0 mph N/A   Clear
4:00 AM 48.2 °F - 32.0 °F 54% 29.66 in 9.0 mi South 8.1 mph 23.0 mph N/A   Scattered Clouds
5:00 AM 47 °F - 33 °F 48% 29.67 in 9 mi South 11.5 mph - -  
5:00 AM 46.4 °F 42.9 °F 33.8 °F 62% 29.67 in 9.0 mi South 6.9 mph 23.0 mph N/A   Clear
6:00 AM 44.6 °F 40.2 °F 33.8 °F 66% 29.68 in 9.0 mi South 8.1 mph 17.3 mph N/A   Clear
7:00 AM 44.6 °F 42.2 °F 33.8 °F 66% 29.70 in 9.0 mi SSE 4.6 mph - N/A   Clear
8:00 AM 45 °F - 34 °F 55% 29.70 in 9 mi South 5.8 mph - -  
8:00 AM 44.6 °F 40.2 °F 33.8 °F 66% 29.70 in 9.0 mi South 8.1 mph - N/A   Partly Cloudy
9:00 AM 48.2 °F - 35.6 °F 62% 29.69 in 9.0 mi SE 4.6 mph - N/A   Partly Cloudy
10:00 AM 50.0 °F - 35.6 °F 58% 29.70 in 9.0 mi South 9.2 mph - N/A   Clear
11:00 AM 54 °F - 37 °F 41% 29.67 in 9 mi South 10.4 mph - -  
11:00 AM 53.6 °F - 37.4 °F 54% 29.67 in 9.0 mi South 9.2 mph 20.7 mph N/A   Partly Cloudy
12:00 PM 53.6 °F - 35.6 °F 51% 29.67 in 9.0 mi SW 5.8 mph - N/A   Mostly Cloudy
1:00 PM 53.6 °F - 30.2 °F 41% 29.68 in 9.0 mi SSW 5.8 mph - N/A   Mostly Cloudy
2:00 PM 53 °F - 31 °F 30% 29.68 in 9 mi SW 6.9 mph - -  
2:00 PM 53.6 °F - 30.2 °F 41% 29.68 in 9.0 mi SW 8.1 mph - N/A   Scattered Clouds
3:00 PM 50.0 °F - 30.2 °F 47% 29.69 in 9.0 mi SW 5.8 mph - N/A   Scattered Clouds
3:50 PM 50.0 °F - 30.2 °F 47% 29.69 in 9.0 mi WSW 8.1 mph 23.0 mph N/A Rain Light Rain
4:00 PM 48.2 °F - 33.8 °F 58% 29.73 in 9.0 mi WSW 11.5 mph 20.7 mph N/A Rain Light Rain
4:23 PM 48.2 °F - 33.8 °F 58% 29.70 in 9.0 mi SSW 5.8 mph - N/A   Mostly Cloudy
5:00 PM 46 °F - 35 °F 55% 29.72 in 9 mi South 4.6 mph - -  
5:00 PM 46.4 °F 44.3 °F 35.6 °F 66% 29.72 in 9.0 mi SSW 4.6 mph - N/A   Mostly Cloudy
6:00 PM 48.2 °F - 32.0 °F 54% 29.70 in 9.0 mi SSW 6.9 mph - N/A   Scattered Clouds
7:00 PM 46.4 °F 41.9 °F 30.2 °F 53% 29.71 in 9.0 mi SW 9.2 mph 20.7 mph N/A   Mostly Cloudy
8:00 PM 46 °F - 32 °F 45% 29.73 in 9 mi SW 4.6 mph - -  
8:00 PM 46.4 °F 43.5 °F 32.0 °F 57% 29.73 in 9.0 mi SW 5.8 mph - N/A   Partly Cloudy
9:00 PM 44.6 °F 42.2 °F 32.0 °F 61% 29.73 in 9.0 mi WSW 4.6 mph - N/A   Clear
10:00 PM 44.6 °F 42.2 °F 32.0 °F 61% 29.75 in 9.0 mi SSW 4.6 mph - N/A   Partly Cloudy
11:00 PM 42 °F - 32 °F 56% 29.76 in 9 mi WSW 2.3 mph - -  
11:00 PM 42.8 °F 41.1 °F 32.0 °F 66% 29.76 in 9.0 mi West 3.5 mph - N/A   Partly Cloudy